Theta_e
319 321 322 322 323 321 327 328 329 337 338 339 341 341 340 343 340 330 342 330 334 340 341 338 338 337 335 332 330 328 323 320 322 322 319 319 320 321 323 323 324 324 323 323 323 323 327 328 333
320 321 322 322 321 326 325 326 331 329 329 336 339 340 340 343 345 345 337 330 336 340 340 338 338 338 337 335 332 330 325 321 323 320 319 321 322 323 324 324 324 323 323 323 323 323 325 327 328
321 320 321 317 317 324 326 326 328 327 329 334 342 342 342 346 347 346 342 332 340 340 339 339 339 338 338 337 335 333 329 322 322 319 320 322 323 324 324 324 324 322 321 322 323 323 323 325 327
321 320 319 318 321 322 324 325 325 325 329 333 343 342 344 347 349 347 343 336 338 340 340 340 339 339 338 338 337 336 334 327 322 321 319 322 323 324 324 325 324 321 321 321 322 323 323 323 323
320 319 317 318 321 320 322 325 326 325 326 330 344 344 343 349 352 346 347 342 336 340 341 341 340 339 338 338 338 337 337 334 327 322 321 320 321 322 323 325 323 322 322 322 322 322 322 322 322
319 317 316 321 320 322 321 325 327 326 328 336 343 342 350 352 352 350 347 348 337 339 341 341 341 340 339 338 339 339 337 337 333 327 323 321 321 322 324 325 323 321 322 322 321 321 320 320 320
316 314 317 319 321 323 323 325 327 326 333 339 344 346 351 353 352 350 347 346 339 340 341 341 342 341 339 338 339 340 340 337 337 332 327 324 322 322 322 323 321 321 323 322 321 321 320 319 319
318 313 316 316 320 324 322 322 326 328 335 349 349 348 348 352 352 350 348 340 339 341 342 343 343 341 338 337 338 340 341 340 338 336 332 326 322 321 322 322 321 321 322 322 322 321 321 320 320
317 313 316 318 319 322 320 322 327 332 347 347 348 348 351 352 351 349 344 339 341 342 342 343 341 338 334 334 336 339 340 341 339 337 334 329 323 321 320 321 322 321 321 322 322 322 321 321 321
314 312 314 316 318 321 319 323 324 330 341 346 350 350 352 351 347 344 339 337 338 339 340 341 338 334 331 330 333 336 338 339 338 335 332 329 326 322 320 321 321 322 322 322 323 323 322 321 321
313 314 315 317 319 320 319 323 325 325 328 341 349 351 351 350 347 346 341 337 334 335 336 336 334 332 330 329 330 332 334 335 334 331 329 326 324 322 320 321 321 322 322 322 322 323 324 323 321
316 315 316 318 320 320 319 324 325 325 326 345 350 351 351 350 348 346 340 333 335 335 335 334 332 330 329 329 328 328 328 328 328 327 327 326 324 322 321 320 321 321 321 322 324 328 338 331 327
316 316 318 319 320 320 320 321 325 326 327 345 350 351 350 350 350 350 349 348 348 345 345 341 336 331 328 328 328 326 325 324 324 324 323 322 321 321 321 320 320 321 323 327 329 332 339 340 340
315 316 317 318 320 320 319 321 326 327 327 344 347 348 347 346 346 348 350 350 350 349 349 347 338 333 330 327 327 327 326 326 330 331 330 329 328 327 324 322 321 321 322 326 335 335 338 341 342
314 317 315 315 317 318 320 321 324 327 327 327 329 334 339 338 338 334 336 344 347 348 347 343 341 335 332 329 328 328 328 334 343 344 340 332 335 340 340 340 340 340 331 328 334 337 339 339 342
313 314 317 317 316 318 320 321 322 327 327 327 327 327 327 327 327 327 330 335 342 346 346 344 341 337 333 331 332 332 331 341 344 345 346 345 344 345 346 346 347 345 345 339 338 340 342 343 343
311 313 313 318 315 319 319 320 319 326 326 326 326 327 327 327 327 326 327 329 332 339 340 340 340 340 336 339 339 340 340 343 346 346 347 347 347 346 347 347 347 347 348 347 344 341 343 341 340
311 312 312 316 315 319 323 325 324 326 327 327 326 327 327 327 327 327 327 330 335 339 340 340 339 338 339 339 337 340 340 338 342 345 347 346 344 346 347 349 348 348 347 347 346 345 344 341 339
310 310 313 313 316 319 321 325 325 325 325 325 324 325 326 327 327 327 327 329 338 339 339 340 340 339 338 336 336 336 336 334 334 335 347 348 348 346 346 343 344 345 343 343 345 343 341 342 340
311 311 312 314 315 320 322 325 325 324 323 325 326 326 326 327 327 326 327 329 337 338 338 339 338 338 336 336 336 335 336 336 336 334 336 349 348 346 342 342 341 341 339 342 340 338 338 338 339
310 310 312 315 319 322 320 323 324 324 325 324 325 326 326 327 328 328 327 329 336 339 337 336 335 336 337 336 335 334 335 335 338 342 346 346 345 344 343 340 339 337 338 341 340 338 337 337 338
311 311 312 314 317 319 322 321 321 324 324 323 324 324 326 326 328 328 328 328 334 333 332 335 336 337 338 337 337 336 334 333 337 346 346 344 344 342 339 339 339 337 339 338 337 335 336 337 332
311 311 312 313 315 318 320 320 317 319 324 323 324 324 323 324 327 328 328 328 328 328 330 334 335 334 334 334 335 336 338 341 342 342 340 339 340 340 339 338 338 339 338 337 337 337 337 337 338
311 312 312 310 311 313 313 321 319 316 319 321 322 325 325 322 324 328 328 329 329 330 331 332 333 334 337 339 339 341 339 336 335 333 333 330 328 328 329 329 330 332 334 335 335 335 336 336 336
310 308 311 312 314 313 314 316 316 317 317 317 317 319 320 320 320 324 329 330 331 333 335 335 335 335 336 335 335 333 329 326 324 321 320 320 319 319 318 319 320 321 322 324 329 332 332 333 333
309 308 310 315 317 316 315 317 315 318 322 323 321 318 317 318 322 328 331 332 333 336 334 330 331 325 323 326 328 326 323 320 318 315 313 313 313 312 312 313 313 314 315 316 317 319 324 329 330
311 310 310 313 314 314 314 315 318 321 321 323 321 317 317 321 330 332 333 335 335 329 328 326 321 321 321 320 319 319 315 315 314 312 313 312 313 313 312 311 311 310 310 310 311 312 313 313 314
310 310 313 313 318 319 317 324 318 324 322 322 321 317 322 332 337 336 337 335 326 324 323 321 321 320 319 319 320 318 316 316 315 315 315 315 316 314 313 311 310 309 309 308 308 308 308 309 310
312 314 311 311 313 316 317 318 318 322 321 322 318 320 328 336 337 338 334 328 325 324 322 321 320 321 320 320 320 318 317 317 317 317 316 316 315 314 312 310 309 309 309 308 308 308 308 308 308
309 312 313 314 317 317 317 317 322 321 321 322 319 323 329 333 335 335 328 326 326 324 323 322 322 320 319 319 318 317 317 317 317 316 316 315 313 312 311 311 310 310 309 308 307 307 307 308 308
Wind_Speed
10 9 7 2 2 4 2 5 3 3 6 4 2 5 5 3 3 3 6 23 28 32 32 29 25 21 17 14 13 11 10 12 14 15 15 17 18 17 15 13 11 10 10 9 8 8 8 7 8
9 6 2 1 4 2 4 3 5 1 8 15 7 4 4 3 4 2 17 24 28 30 30 28 25 21 18 14 13 11 11 13 14 15 16 16 16 14 12 11 10 9 8 8 7 6 6 5 5
7 3 2 4 3 5 4 4 1 9 17 9 3 1 4 4 4 5 8 22 32 31 29 26 23 20 18 15 12 11 11 12 14 15 16 16 15 13 11 9 9 8 7 6 6 6 5 3 3
4 2 3 4 5 6 5 4 3 5 6 7 4 1 5 7 3 3 14 22 30 30 28 25 23 20 17 15 13 11 10 11 13 14 15 15 14 11 9 7 6 6 5 5 5 5 4 3 3
7 3 2 3 5 6 2 4 6 5 4 5 7 2 3 10 6 8 12 20 29 29 28 25 22 19 17 16 15 13 10 9 10 12 13 13 12 10 9 7 5 4 4 4 3 3 3 3 3
5 3 2 5 4 5 5 4 2 3 7 3 10 8 3 3 6 12 18 19 30 29 28 25 22 19 17 15 14 13 11 9 8 8 9 11 11 11 10 8 6 4 4 3 2 2 1 2 2
6 3 5 4 6 2 4 1 4 5 3 3 5 4 3 4 9 10 23 23 31 29 28 24 21 19 17 16 15 13 11 10 8 7 8 9 11 11 10 9 8 6 5 4 3 2 1 2 2
5 3 5 4 5 5 2 7 6 5 0 4 5 6 6 12 15 18 24 27 28 26 25 23 21 18 17 16 15 14 13 12 10 9 8 8 9 11 11 11 9 8 7 6 5 4 4 3 3
7 3 4 6 6 4 1 2 3 3 5 6 4 7 17 15 18 22 25 27 26 26 24 23 21 19 16 15 16 17 16 14 12 11 9 9 9 10 11 12 11 10 9 8 7 7 7 6 6
5 5 8 5 4 2 3 0 1 3 7 8 19 19 21 22 23 23 25 26 26 26 24 21 19 17 16 16 17 17 17 16 14 13 11 10 11 11 12 12 13 13 12 11 10 9 9 9 9
7 6 5 4 5 1 4 3 1 5 1 9 22 30 26 24 23 20 21 21 23 23 22 20 19 18 17 17 17 17 16 15 14 13 12 11 12 14 13 12 13 13 13 12 12 12 12 12 12
5 6 8 4 1 3 3 5 2 1 3 12 24 32 30 24 21 22 21 23 23 24 21 20 20 18 17 17 16 16 15 15 14 13 13 13 13 13 13 14 14 15 14 15 14 12 10 10 11
3 4 6 6 1 5 3 3 2 6 8 19 21 25 27 25 22 20 19 20 19 19 17 18 20 20 18 16 16 16 16 15 13 13 13 13 13 12 13 14 15 16 15 15 15 14 12 10 11
8 5 3 3 2 1 2 2 2 6 10 20 23 22 22 19 17 18 20 18 16 14 16 14 21 22 21 16 17 17 17 14 15 14 13 12 13 13 14 15 16 17 17 16 17 15 16 16 15
5 3 4 5 5 4 6 2 5 14 12 14 14 17 17 14 13 10 10 16 16 16 12 9 14 22 20 18 17 17 16 16 14 10 11 12 11 10 11 13 15 13 14 17 17 18 20 21 20
6 2 7 5 9 4 5 2 5 15 16 16 12 9 9 14 7 9 13 16 21 21 20 17 13 19 21 21 20 21 22 20 14 13 12 9 12 12 14 15 15 12 14 18 19 18 21 24 23
6 6 4 1 11 4 4 4 8 15 14 14 15 14 11 8 6 6 8 10 18 17 17 17 19 22 20 20 19 22 23 18 13 13 16 14 16 17 16 20 20 19 20 23 23 22 22 25 25
12 13 5 8 6 3 4 4 4 20 17 13 14 15 13 10 7 9 7 7 13 16 17 18 21 19 23 26 24 22 17 11 13 16 19 18 20 21 19 23 25 25 25 28 29 27 25 26 27
8 10 6 4 2 5 6 5 5 15 11 11 13 8 8 8 8 10 12 12 16 19 20 20 18 17 22 25 26 25 27 13 17 19 20 18 22 23 23 24 26 26 26 27 26 27 28 29 30
5 8 5 1 5 3 5 6 7 8 11 19 16 14 11 11 12 12 15 18 22 23 20 18 16 17 18 20 21 26 26 28 30 25 28 19 19 21 22 23 24 23 26 30 28 26 29 30 32
2 7 6 4 4 3 6 4 5 5 6 11 14 16 13 15 14 15 17 19 22 22 20 18 14 12 13 14 14 16 18 22 25 27 23 22 22 23 25 26 29 29 28 27 28 27 28 31 31
4 5 5 8 5 4 3 4 5 6 8 6 14 17 16 18 18 18 21 20 20 18 16 16 15 15 14 10 10 12 13 15 16 15 16 17 18 21 24 25 27 27 25 29 29 29 31 23 27
5 6 6 3 4 4 1 3 6 3 7 9 11 17 18 20 23 22 20 20 18 17 16 13 10 9 7 7 8 9 8 5 4 7 9 10 12 16 18 21 22 23 22 25 26 26 24 25 24
6 6 6 5 3 1 6 5 4 5 6 5 12 22 22 19 25 25 23 24 21 17 14 12 9 6 5 5 3 3 1 4 3 5 7 10 11 11 10 10 10 12 12 14 15 18 20 19 21
6 7 2 1 1 5 4 4 7 6 3 5 9 11 10 17 23 27 29 26 24 20 15 13 10 9 5 2 3 5 8 9 9 11 11 11 12 13 14 16 16 16 16 15 14 15 15 16 17
6 8 5 4 4 2 4 5 6 2 2 5 8 13 10 22 29 34 35 32 27 20 17 17 15 12 7 5 6 7 8 9 12 14 14 16 19 20 20 21 21 22 22 21 20 19 18 18 18
4 5 8 6 3 4 3 5 5 4 5 11 13 8 18 28 37 39 40 33 29 25 23 20 17 14 12 10 9 8 10 10 11 13 19 21 21 23 24 26 26 24 23 23 23 23 23 22 22
9 6 4 3 4 3 4 3 5 3 5 8 8 9 15 26 38 43 39 35 30 27 24 21 16 13 12 9 5 7 9 10 10 14 17 20 23 25 28 31 32 29 26 26 26 25 25 25 25
3 3 5 5 4 5 1 5 5 6 3 7 10 8 19 29 37 43 38 34 30 27 24 20 17 14 12 7 2 2 6 10 11 12 16 18 20 23 26 28 26 25 25 26 27 27 27 27 26
7 9 7 5 4 0 4 6 3 5 6 6 6 12 21 28 37 41 36 31 30 27 24 20 17 14 11 8 5 5 5 6 8 11 15 18 21 24 27 25 24 26 28 29 30 31 31 32 33
Wind_Direction
282 300 305 289 58 70 249 254 253 303 354 319 181 169 188 101 130 214 145 167 167 165 163 162 162 157 156 154 152 146 139 144 143 142 143 142 141 140 138 133 128 122 115 114 117 117 115 113 117
277 289 267 140 104 122 250 257 203 53 303 295 255 231 123 80 54 45 146 161 168 166 163 163 162 159 162 160 152 143 135 144 143 145 144 143 143 143 143 137 130 125 119 119 119 124 127 127 133
278 298 179 108 127 187 179 230 238 307 313 276 293 188 116 103 58 132 165 165 170 168 165 164 165 165 170 170 159 150 141 143 150 152 154 152 153 154 153 147 139 132 128 127 126 127 135 152 162
242 217 94 109 208 258 183 160 317 299 311 225 262 271 88 88 80 149 161 170 173 171 167 167 166 169 175 175 173 166 154 146 154 159 163 165 165 166 166 160 149 139 133 135 133 128 139 171 201
205 186 112 144 215 270 204 278 302 326 273 269 189 300 39 39 88 138 167 175 177 174 172 169 169 172 176 182 183 179 170 158 157 163 170 174 177 179 179 177 171 158 152 152 146 142 156 182 203
188 142 101 198 213 253 298 254 301 288 311 351 155 123 28 47 158 160 172 179 176 176 173 172 172 176 180 186 188 187 185 179 170 166 174 184 188 191 192 193 196 193 190 182 172 174 184 202 220
167 123 188 205 190 239 242 146 160 271 267 127 125 81 139 180 170 165 168 178 175 178 174 174 177 183 185 188 190 194 196 198 195 188 184 190 198 204 205 206 210 210 215 220 226 233 251 268 255
195 115 160 227 177 204 229 325 210 234 79 101 110 143 177 178 167 165 168 169 175 177 177 179 181 187 190 192 192 196 204 207 210 215 209 206 207 211 215 216 221 226 230 235 240 253 262 266 274
172 89 207 188 155 204 59 66 188 62 102 66 90 153 156 148 149 152 161 170 175 177 181 183 188 193 193 196 199 200 205 208 214 224 228 231 225 220 220 225 227 233 240 246 251 257 265 270 270
152 154 208 200 194 138 48 174 264 121 109 90 97 126 142 145 147 152 165 171 176 179 181 186 192 196 197 203 206 207 210 213 218 225 231 240 247 240 230 229 232 236 243 246 254 259 264 268 264
171 187 189 247 219 347 47 9 45 102 120 185 158 148 152 154 156 155 169 175 179 182 185 190 194 196 202 206 209 212 216 220 226 232 237 240 244 251 248 246 247 248 254 259 266 267 268 266 265
145 212 177 231 64 11 69 333 17 90 92 152 157 150 153 160 161 157 160 168 179 188 188 195 200 204 208 209 211 210 217 224 231 236 241 247 252 255 259 261 259 258 260 264 264 267 272 276 271
148 186 191 205 235 357 45 323 171 96 113 147 151 152 156 163 165 168 174 180 187 189 191 203 208 209 210 217 218 219 216 218 226 230 237 245 254 262 268 268 264 265 267 271 268 260 266 266 271
183 193 209 207 189 253 48 318 121 177 117 149 157 152 152 157 167 177 186 194 196 198 201 208 217 216 218 219 224 224 223 216 221 229 242 251 264 267 270 272 272 269 275 277 275 270 268 268 272
95 168 311 206 224 223 153 153 229 174 155 133 141 164 176 183 181 192 210 212 208 205 201 218 235 224 225 229 229 231 232 227 231 234 236 251 268 279 280 278 280 289 282 275 277 277 278 277 278
141 100 213 208 148 228 131 214 239 190 161 143 137 148 167 168 176 223 221 223 221 220 225 240 236 226 226 224 228 227 220 231 243 265 274 274 269 272 275 278 282 293 286 281 276 280 284 284 284
192 193 202 134 178 134 155 210 214 199 202 158 157 174 189 208 194 219 238 223 208 219 229 232 235 233 228 224 226 232 237 246 257 283 277 274 272 271 276 279 284 283 285 284 283 278 285 291 291
182 190 173 180 185 96 137 204 136 187 195 178 162 167 184 208 222 215 210 218 198 201 201 223 231 232 242 231 245 249 250 268 263 285 294 293 293 290 281 282 283 283 283 281 283 281 285 293 294
122 150 115 159 170 123 180 195 185 195 201 204 166 188 194 211 207 213 212 198 201 201 210 223 235 239 251 261 248 254 257 281 297 312 311 295 291 288 292 293 293 294 293 291 290 286 283 289 297
113 147 172 58 189 153 138 214 248 166 194 192 203 193 202 201 209 215 218 210 203 205 211 220 235 236 254 252 259 254 267 281 295 293 295 293 287 290 288 290 290 292 289 284 287 291 282 283 294
75 129 154 139 144 61 117 307 248 261 215 192 206 216 207 201 213 218 215 209 207 205 210 222 228 241 244 246 256 267 275 285 294 288 282 276 277 278 279 286 280 280 276 279 283 282 277 282 288
138 189 139 129 108 194 160 251 244 242 257 227 225 221 217 200 202 214 210 213 207 208 219 229 230 233 245 266 269 274 281 298 309 308 298 291 280 276 277 276 278 277 279 275 275 275 278 285 287
192 169 164 144 123 122 145 133 262 211 244 256 257 234 221 207 194 196 206 204 202 210 218 219 220 229 250 271 286 304 311 315 301 303 314 325 319 302 296 282 280 281 281 278 278 282 281 282 281
158 112 47 54 97 215 214 144 268 194 199 231 244 253 248 206 194 192 197 203 201 195 190 180 188 205 249 279 318 340 19 89 68 54 32 26 21 18 11 7 350 338 320 308 304 297 297 291 288
126 94 64 27 207 216 168 116 231 259 217 243 271 280 245 215 201 187 191 185 181 175 176 182 196 190 182 135 94 73 68 59 49 39 25 9 358 355 351 344 339 334 333 331 324 315 309 297 292
162 144 150 157 139 200 165 226 248 216 146 320 297 262 235 194 191 185 180 175 177 173 175 177 171 150 146 143 106 72 45 17 10 12 11 8 6 359 350 340 332 324 318 313 310 306 302 296 291
177 139 188 97 24 73 226 309 319 350 333 0 333 248 205 191 183 178 172 177 172 170 173 163 156 152 148 132 98 47 21 6 6 11 7 2 0 359 354 346 339 328 319 313 308 305 303 299 296
152 164 91 11 111 175 275 259 235 312 323 323 309 246 206 183 176 175 173 172 168 170 165 166 161 150 145 135 92 36 18 10 357 348 342 343 341 337 336 335 330 322 318 314 312 306 300 296 293
86 123 62 115 128 165 169 266 215 207 260 279 284 226 187 175 175 172 169 168 167 166 170 168 167 168 161 155 148 320 331 332 329 324 325 329 329 330 330 329 329 323 321 317 312 310 307 303 299
159 166 140 125 217 12 151 261 224 231 269 262 217 183 179 173 173 170 168 169 169 172 172 173 178 185 180 185 211 252 266 286 298 305 312 316 320 324 324 324 327 325 324 322 315 309 305 303 300